Voltar ao catálogo

ARIANE 2 DEB

AtivoGTO
NORAD 26727·DEBRIS·🇫🇷 France

Lançado Jan 27, 1989 de Guiana Space Centre

Loading…

TLE

EnvelhecendoSource: Space-Track

Época: Sep 14, 2026, 13:28 UTC

1 26727U 89006E   26257.56173168  .00000012  00000-0  19141-2 0  9997
2 26727   8.3821  61.0302 7151942 103.0095 264.7266  2.29037780213734

Acompanhe ARIANE 2 DEB em tempo real com AllMySat

Download on the App Store